Time,TemperatureF,DewpointF,PressureIn,WindDirection,WindDirectionDegrees,WindSpeedMPH,WindSpeedGustMPH,Humidity,HourlyPrecipIn,Conditions,Clouds,dailyrainin,SoftwareType,DateUTC
2013-05-01 00:01:00,47.3,18.2,30.18,South,189,0.0,0.0,31,0.00,,CLR,0.00,VWS V14.00,2013-05-01 04:01:00,
2013-05-01 00:06:00,46.8,19.2,30.18,South,189,0.0,0.0,33,0.00,,CLR,0.00,VWS V14.00,2013-05-01 04:06:00,
2013-05-01 00:11:00,46.6,19.7,30.18,South,189,0.0,0.0,34,0.00,,CLR,0.00,VWS V14.00,2013-05-01 04:11:00,
2013-05-01 00:16:00,46.4,20.2,30.18,South,189,0.0,0.0,35,0.00,,CLR,0.00,VWS V14.00,2013-05-01 04:16:00,
2013-05-01 00:21:00,46.2,20.8,30.18,South,189,0.0,0.0,36,0.00,,CLR,0.00,VWS V14.00,2013-05-01 04:21:00,
2013-05-01 00:26:00,46.2,20.8,30.18,South,189,0.0,0.0,36,0.00,,CLR,0.00,VWS V14.00,2013-05-01 04:26:00,
2013-05-01 00:31:00,46.0,20.6,30.18,South,189,0.0,0.0,36,0.00,,CLR,0.00,VWS V14.00,2013-05-01 04:31:00,
2013-05-01 00:36:00,46.0,21.2,30.18,South,189,0.0,0.0,37,0.00,,CLR,0.00,VWS V14.00,2013-05-01 04:36:00,
2013-05-01 00:41:00,45.7,20.9,30.18,South,189,0.0,0.0,37,0.00,,CLR,0.00,VWS V14.00,2013-05-01 04:41:00,
2013-05-01 00:46:00,45.7,20.9,30.18,South,189,0.0,0.0,37,0.00,,CLR,0.00,VWS V14.00,2013-05-01 04:46:00,
2013-05-01 00:51:00,45.5,21.4,30.18,South,189,0.0,0.0,38,0.00,,CLR,0.00,VWS V14.00,2013-05-01 04:51:00,
2013-05-01 00:56:00,45.1,21.1,30.18,South,189,0.0,0.0,38,0.00,,CLR,0.00,VWS V14.00,2013-05-01 04:56:00,
2013-05-01 01:01:00,45.0,20.9,30.18,South,189,0.0,0.0,38,0.00,,CLR,0.00,VWS V14.00,2013-05-01 05:01:00,
2013-05-01 01:06:00,45.0,20.9,30.18,South,189,0.0,0.0,38,0.00,,CLR,0.00,VWS V14.00,2013-05-01 05:06:00,
2013-05-01 01:11:00,44.8,20.7,30.18,South,189,0.0,0.0,38,0.00,,CLR,0.00,VWS V14.00,2013-05-01 05:11:00,
2013-05-01 01:16:00,44.8,20.7,30.18,South,189,0.0,0.0,38,0.00,,CLR,0.00,VWS V14.00,2013-05-01 05:16:00,
2013-05-01 01:21:00,44.6,20.6,30.18,South,189,0.0,0.0,38,0.00,,CLR,0.00,VWS V14.00,2013-05-01 05:21:00,
2013-05-01 01:26:00,44.2,20.3,30.18,South,189,0.0,0.0,38,0.00,,CLR,0.00,VWS V14.00,2013-05-01 05:26:00,
2013-05-01 01:31:00,44.1,20.1,30.18,South,189,0.0,0.0,38,0.00,,CLR,0.00,VWS V14.00,2013-05-01 05:31:00,
2013-05-01 01:36:00,43.9,20.5,30.18,South,189,0.0,0.0,39,0.00,,CLR,0.00,VWS V14.00,2013-05-01 05:36:00,
2013-05-01 01:41:00,43.7,20.4,30.18,South,189,0.0,0.0,39,0.00,,CLR,0.00,VWS V14.00,2013-05-01 05:41:00,
2013-05-01 01:46:00,43.5,20.8,30.18,South,189,0.0,0.0,40,0.00,,CLR,0.00,VWS V14.00,2013-05-01 05:46:00,
2013-05-01 01:51:00,43.3,20.6,30.18,South,189,0.0,0.0,40,0.00,,CLR,0.00,VWS V14.00,2013-05-01 05:51:00,
2013-05-01 01:56:00,43.0,20.3,30.18,South,189,0.0,0.0,40,0.00,,CLR,0.00,VWS V14.00,2013-05-01 05:56:00,
2013-05-01 02:01:00,42.8,20.2,30.18,South,189,0.0,0.0,40,0.00,,CLR,0.00,VWS V14.00,2013-05-01 06:01:00,
2013-05-01 02:06:00,42.4,19.8,30.18,South,189,0.0,0.0,40,0.00,,CLR,0.00,VWS V14.00,2013-05-01 06:06:00,
2013-05-01 02:11:00,42.3,20.3,30.18,South,189,0.0,0.0,41,0.00,,CLR,0.00,VWS V14.00,2013-05-01 06:11:00,
2013-05-01 02:16:00,42.3,20.3,30.18,South,189,0.0,0.0,41,0.00,,CLR,0.00,VWS V14.00,2013-05-01 06:16:00,
2013-05-01 02:21:00,42.3,20.3,30.18,South,189,0.0,0.0,41,0.00,,CLR,0.00,VWS V14.00,2013-05-01 06:21:00,
2013-05-01 02:26:00,42.1,20.1,30.18,South,189,0.0,0.0,41,0.00,,CLR,0.00,VWS V14.00,2013-05-01 06:26:00,
2013-05-01 02:31:00,41.9,19.9,30.18,South,189,0.0,0.0,41,0.00,,CLR,0.00,VWS V14.00,2013-05-01 06:31:00,
2013-05-01 02:36:00,41.7,20.3,30.18,South,189,0.0,0.0,42,0.00,,CLR,0.00,VWS V14.00,2013-05-01 06:36:00,
2013-05-01 02:41:00,41.7,20.3,30.18,South,189,0.0,0.0,42,0.00,,CLR,0.00,VWS V14.00,2013-05-01 06:41:00,
2013-05-01 02:46:00,41.7,20.3,30.18,South,189,0.0,0.0,42,0.00,,CLR,0.00,VWS V14.00,2013-05-01 06:46:00,
2013-05-01 02:51:00,41.5,20.7,30.18,South,189,0.0,0.0,43,0.00,,CLR,0.00,VWS V14.00,2013-05-01 06:51:00,
2013-05-01 02:56:00,41.4,20.6,30.21,South,189,0.0,0.0,43,0.00,,CLR,0.00,VWS V14.00,2013-05-01 06:56:00,
2013-05-01 03:01:00,41.4,20.6,30.21,South,189,0.0,0.0,43,0.00,,CLR,0.00,VWS V14.00,2013-05-01 07:01:00,
2013-05-01 03:06:00,41.2,20.4,30.21,South,189,0.0,0.0,43,0.00,,CLR,0.00,VWS V14.00,2013-05-01 07:06:00,
2013-05-01 03:11:00,41.0,20.8,30.21,South,189,0.0,0.0,44,0.00,,CLR,0.00,VWS V14.00,2013-05-01 07:11:00,
2013-05-01 03:16:00,41.0,20.8,30.21,South,189,0.0,0.0,44,0.00,,CLR,0.00,VWS V14.00,2013-05-01 07:16:00,
2013-05-01 03:21:00,41.0,20.8,30.21,South,189,0.0,0.0,44,0.00,,CLR,0.00,VWS V14.00,2013-05-01 07:21:00,
2013-05-01 03:26:00,40.8,20.6,30.21,South,189,0.0,0.0,44,0.00,,CLR,0.00,VWS V14.00,2013-05-01 07:26:00,
2013-05-01 03:31:00,40.6,20.5,30.21,South,189,0.0,0.0,44,0.00,,CLR,0.00,VWS V14.00,2013-05-01 07:31:00,
2013-05-01 03:36:00,40.6,20.5,30.21,South,189,0.0,0.0,44,0.00,,CLR,0.00,VWS V14.00,2013-05-01 07:36:00,
2013-05-01 03:41:00,40.5,20.8,30.21,South,189,0.0,0.0,45,0.00,,CLR,0.00,VWS V14.00,2013-05-01 07:41:00,
2013-05-01 03:46:00,40.3,20.6,30.21,South,189,0.0,0.0,45,0.00,,CLR,0.00,VWS V14.00,2013-05-01 07:46:00,
2013-05-01 03:51:00,40.1,21.0,30.21,South,189,0.0,0.0,46,0.00,,CLR,0.00,VWS V14.00,2013-05-01 07:51:00,
2013-05-01 03:56:00,39.9,20.8,30.21,South,189,0.0,0.0,46,0.00,,CLR,0.00,VWS V14.00,2013-05-01 07:56:00,
2013-05-01 04:01:00,39.9,21.3,30.21,South,189,0.0,0.0,47,0.00,,CLR,0.00,VWS V14.00,2013-05-01 08:01:00,
2013-05-01 04:06:00,39.7,21.2,30.21,South,189,0.0,0.0,47,0.00,,CLR,0.00,VWS V14.00,2013-05-01 08:06:00,
2013-05-01 04:11:00,39.7,21.7,30.21,South,189,0.0,0.0,48,0.00,,CLR,0.00,VWS V14.00,2013-05-01 08:11:00,
2013-05-01 04:16:00,39.6,21.5,30.21,South,189,0.0,0.0,48,0.00,,CLR,0.00,VWS V14.00,2013-05-01 08:16:00,
2013-05-01 04:21:00,39.4,21.3,30.21,South,189,0.0,0.0,48,0.00,,CLR,0.00,VWS V14.00,2013-05-01 08:21:00,
2013-05-01 04:26:00,39.4,21.3,30.21,South,189,0.0,0.0,48,0.00,,CLR,0.00,VWS V14.00,2013-05-01 08:26:00,
2013-05-01 04:31:00,39.4,21.3,30.21,South,189,0.0,0.0,48,0.00,,CLR,0.00,VWS V14.00,2013-05-01 08:31:00,
2013-05-01 04:36:00,39.4,21.8,30.21,South,189,0.0,0.0,49,0.00,,CLR,0.00,VWS V14.00,2013-05-01 08:36:00,
2013-05-01 04:41:00,39.4,21.8,30.21,South,189,0.0,0.0,49,0.00,,CLR,0.00,VWS V14.00,2013-05-01 08:41:00,
2013-05-01 04:46:00,39.2,21.7,30.21,South,189,0.0,0.0,49,0.00,,CLR,0.00,VWS V14.00,2013-05-01 08:46:00,
2013-05-01 04:51:00,39.2,21.7,30.21,South,189,0.0,0.0,49,0.00,,CLR,0.00,VWS V14.00,2013-05-01 08:51:00,
2013-05-01 04:56:00,39.0,21.5,30.21,South,189,0.0,0.0,49,0.00,,CLR,0.00,VWS V14.00,2013-05-01 08:56:00,
2013-05-01 05:01:00,38.8,21.3,30.21,South,189,0.0,0.0,49,0.00,,CLR,0.00,VWS V14.00,2013-05-01 09:01:00,
2013-05-01 05:06:00,38.7,20.7,30.21,South,189,0.0,0.0,48,0.00,,CLR,0.00,VWS V14.00,2013-05-01 09:06:00,
2013-05-01 05:11:00,38.5,21.0,30.24,South,189,0.0,0.0,49,0.00,,CLR,0.00,VWS V14.00,2013-05-01 09:11:00,
2013-05-01 05:16:00,38.3,20.8,30.24,South,189,0.0,0.0,49,0.00,,CLR,0.00,VWS V14.00,2013-05-01 09:16:00,
2013-05-01 05:21:00,38.1,21.1,30.24,South,189,0.0,0.0,50,0.00,,CLR,0.00,VWS V14.00,2013-05-01 09:21:00,
2013-05-01 05:26:00,38.1,21.1,30.21,South,189,0.0,0.0,50,0.00,,CLR,0.00,VWS V14.00,2013-05-01 09:26:00,
2013-05-01 05:31:00,38.1,21.6,30.21,South,189,0.0,0.0,51,0.00,,CLR,0.00,VWS V14.00,2013-05-01 09:31:00,
2013-05-01 05:36:00,37.9,21.4,30.21,South,189,0.0,0.0,51,0.00,,CLR,0.00,VWS V14.00,2013-05-01 09:36:00,
2013-05-01 05:41:00,37.9,21.0,30.21,South,189,0.0,0.0,50,0.00,,CLR,0.00,VWS V14.00,2013-05-01 09:41:00,
2013-05-01 05:46:00,37.8,21.3,30.21,South,189,0.0,0.0,51,0.00,,CLR,0.00,VWS V14.00,2013-05-01 09:46:00,
2013-05-01 05:51:00,37.8,21.3,30.21,South,188,0.0,0.0,51,0.00,,CLR,0.00,VWS V14.00,2013-05-01 09:51:00,
2013-05-01 05:56:00,37.6,20.6,30.24,South,189,0.0,0.0,50,0.00,,CLR,0.00,VWS V14.00,2013-05-01 09:56:00,
2013-05-01 06:01:00,37.6,20.6,30.24,South,189,0.0,0.0,50,0.00,,CLR,0.00,VWS V14.00,2013-05-01 10:01:00,
2013-05-01 06:06:00,37.6,20.6,30.24,South,189,0.0,0.0,50,0.00,,CLR,0.00,VWS V14.00,2013-05-01 10:06:00,
2013-05-01 06:11:00,37.6,20.6,30.24,South,189,0.0,0.0,50,0.00,,CLR,0.00,VWS V14.00,2013-05-01 10:11:00,
2013-05-01 06:16:00,37.8,20.8,30.24,South,189,0.0,0.0,50,0.00,,CLR,0.00,VWS V14.00,2013-05-01 10:16:00,
2013-05-01 06:21:00,37.9,21.0,30.24,South,189,0.0,0.0,50,0.00,,CLR,0.00,VWS V14.00,2013-05-01 10:21:00,
2013-05-01 06:26:00,37.9,21.0,30.24,South,189,0.0,0.0,50,0.00,,CLR,0.00,VWS V14.00,2013-05-01 10:26:00,
2013-05-01 06:31:00,38.1,21.1,30.24,South,189,0.0,0.0,50,0.00,,CLR,0.00,VWS V14.00,2013-05-01 10:31:00,
2013-05-01 06:36:00,38.5,21.5,30.24,South,189,0.0,0.0,50,0.00,,CLR,0.00,VWS V14.00,2013-05-01 10:36:00,
2013-05-01 06:41:00,38.7,21.6,30.24,South,188,0.0,0.0,50,0.00,,CLR,0.00,VWS V14.00,2013-05-01 10:41:00,
2013-05-01 06:46:00,38.8,21.8,30.24,South,189,0.0,0.0,50,0.00,,CLR,0.00,VWS V14.00,2013-05-01 10:46:00,
2013-05-01 06:51:00,39.2,22.1,30.24,South,189,0.0,0.0,50,0.00,,CLR,0.00,VWS V14.00,2013-05-01 10:51:00,
2013-05-01 06:56:00,39.6,22.5,30.24,South,189,0.0,0.0,50,0.00,,CLR,0.00,VWS V14.00,2013-05-01 10:56:00,
2013-05-01 07:01:00,39.9,22.8,30.24,South,189,0.0,0.0,50,0.00,,CLR,0.00,VWS V14.00,2013-05-01 11:01:00,
2013-05-01 07:06:00,40.3,22.7,30.24,South,189,0.0,0.0,49,0.00,,CLR,0.00,VWS V14.00,2013-05-01 11:06:00,
2013-05-01 07:11:00,40.6,23.0,30.24,South,189,0.0,0.0,49,0.00,,CLR,0.00,VWS V14.00,2013-05-01 11:11:00,
2013-05-01 07:16:00,41.5,23.8,30.24,South,189,0.0,0.0,49,0.00,,CLR,0.00,VWS V14.00,2013-05-01 11:16:00,
2013-05-01 07:21:00,44.2,26.3,30.24,South,189,0.0,0.0,49,0.00,,CLR,0.00,VWS V14.00,2013-05-01 11:21:00,
2013-05-01 07:26:00,45.1,23.4,30.24,South,189,0.0,0.0,42,0.00,,CLR,0.00,VWS V14.00,2013-05-01 11:26:00,
2013-05-01 07:31:00,45.0,23.3,30.24,South,189,0.0,0.0,42,0.00,,CLR,0.00,VWS V14.00,2013-05-01 11:31:00,
2013-05-01 07:36:00,45.1,22.9,30.24,South,189,0.0,0.0,41,0.00,,CLR,0.00,VWS V14.00,2013-05-01 11:36:00,
2013-05-01 07:41:00,45.9,22.9,30.27,South,189,0.0,0.0,40,0.00,,CLR,0.00,VWS V14.00,2013-05-01 11:41:00,
2013-05-01 07:46:00,48.0,24.3,30.27,South,189,0.0,0.0,39,0.00,,CLR,0.00,VWS V14.00,2013-05-01 11:46:00,
2013-05-01 07:51:00,48.7,23.6,30.27,South,189,0.0,0.0,37,0.00,,CLR,0.00,VWS V14.00,2013-05-01 11:51:00,
2013-05-01 07:56:00,48.7,23.6,30.27,SSW,198,0.0,0.0,37,0.00,,CLR,0.00,VWS V14.00,2013-05-01 11:56:00,
2013-05-01 08:01:00,50.2,24.9,30.27,SSW,205,0.0,0.0,37,0.00,,CLR,0.00,VWS V14.00,2013-05-01 12:01:00,
2013-05-01 08:06:00,51.3,25.2,30.27,SSW,204,0.0,0.0,36,0.00,,CLR,0.00,VWS V14.00,2013-05-01 12:06:00,
2013-05-01 08:11:00,51.6,24.2,30.27,WNW,297,0.0,0.0,34,0.00,,CLR,0.00,VWS V14.00,2013-05-01 12:11:00,
2013-05-01 08:16:00,52.0,21.5,30.27,NNW,337,2.7,3.6,30,0.00,,CLR,0.00,VWS V14.00,2013-05-01 12:16:00,
2013-05-01 08:21:00,51.6,18.8,30.27,NNE,28,0.0,0.0,27,0.00,,CLR,0.00,VWS V14.00,2013-05-01 12:21:00,
2013-05-01 08:26:00,51.4,18.6,30.27,NW,324,0.0,0.0,27,0.00,,CLR,0.00,VWS V14.00,2013-05-01 12:26:00,
2013-05-01 08:31:00,51.3,17.6,30.27,North,8,0.0,3.1,26,0.00,,CLR,0.00,VWS V14.00,2013-05-01 12:31:00,
2013-05-01 08:36:00,51.4,17.7,30.27,NNW,347,0.0,0.0,26,0.00,,CLR,0.00,VWS V14.00,2013-05-01 12:36:00,
2013-05-01 08:41:00,51.6,18.8,30.27,WNW,294,0.0,0.0,27,0.00,,CLR,0.00,VWS V14.00,2013-05-01 12:41:00,
2013-05-01 08:46:00,51.8,18.0,30.27,East,93,0.0,3.1,26,0.00,,CLR,0.00,VWS V14.00,2013-05-01 12:46:00,
2013-05-01 08:51:00,52.3,19.4,30.27,NNW,327,0.0,0.0,27,0.00,,CLR,0.00,VWS V14.00,2013-05-01 12:51:00,
2013-05-01 08:56:00,52.7,18.8,30.27,North,351,0.0,0.0,26,0.00,,CLR,0.00,VWS V14.00,2013-05-01 12:56:00,
2013-05-01 09:01:00,53.1,19.1,30.27,WSW,256,0.0,4.0,26,0.00,,CLR,0.00,VWS V14.00,2013-05-01 13:01:00,
2013-05-01 09:06:00,53.4,19.4,30.27,SW,230,0.0,0.0,26,0.00,,CLR,0.00,VWS V14.00,2013-05-01 13:06:00,
2013-05-01 09:11:00,53.8,19.7,30.27,NNE,13,2.7,2.7,26,0.00,,CLR,0.00,VWS V14.00,2013-05-01 13:11:00,
2013-05-01 09:16:00,54.3,19.3,30.27,SE,139,0.0,0.0,25,0.00,,CLR,0.00,VWS V14.00,2013-05-01 13:16:00,
2013-05-01 09:21:00,54.7,16.6,30.27,NNW,328,0.0,0.0,22,0.00,,CLR,0.00,VWS V14.00,2013-05-01 13:21:00,
2013-05-01 09:26:00,55.0,14.7,30.27,NE,47,2.7,2.7,20,0.00,,CLR,0.00,VWS V14.00,2013-05-01 13:26:00,
2013-05-01 09:31:00,55.6,15.2,30.27,SE,146,3.1,3.1,20,0.00,,CLR,0.00,VWS V14.00,2013-05-01 13:31:00,
2013-05-01 09:36:00,55.9,15.5,30.27,NNW,327,0.0,4.0,20,0.00,,CLR,0.00,VWS V14.00,2013-05-01 13:36:00,
2013-05-01 09:41:00,56.3,14.6,30.27,NE,37,0.0,3.1,19,0.00,,CLR,0.00,VWS V14.00,2013-05-01 13:41:00,
2013-05-01 09:46:00,56.5,12.2,30.27,SW,227,0.0,0.0,17,0.00,,CLR,0.00,VWS V14.00,2013-05-01 13:46:00,
2013-05-01 09:51:00,56.8,8.2,30.27,NNW,347,0.0,4.0,14,0.00,,CLR,0.00,VWS V14.00,2013-05-01 13:51:00,
2013-05-01 09:56:00,57.4,8.6,30.27,East,89,2.7,2.7,14,0.00,,CLR,0.00,VWS V14.00,2013-05-01 13:56:00,
2013-05-01 10:01:00,57.9,9.0,30.27,East,96,4.0,4.5,14,0.00,,CLR,0.00,VWS V14.00,2013-05-01 14:01:00,
2013-05-01 10:06:00,58.6,6.2,30.27,NW,324,3.1,3.6,12,0.00,,CLR,0.00,VWS V14.00,2013-05-01 14:06:00,
2013-05-01 10:11:00,58.8,6.3,30.27,NE,52,0.0,2.7,12,0.00,,CLR,0.00,VWS V14.00,2013-05-01 14:11:00,
2013-05-01 10:16:00,59.2,6.6,30.27,NE,41,0.0,4.5,12,0.00,,CLR,0.00,VWS V14.00,2013-05-01 14:16:00,
2013-05-01 10:21:00,59.7,7.0,30.27,ENE,72,2.7,4.0,12,0.00,,CLR,0.00,VWS V14.00,2013-05-01 14:21:00,
2013-05-01 10:26:00,60.3,5.6,30.27,ENE,76,0.0,3.1,11,0.00,,CLR,0.00,VWS V14.00,2013-05-01 14:26:00,
2013-05-01 10:31:00,61.0,6.1,30.27,ENE,70,3.6,4.0,11,0.00,,CLR,0.00,VWS V14.00,2013-05-01 14:31:00,
2013-05-01 10:36:00,61.3,6.4,30.27,NE,49,3.6,4.5,11,0.00,,CLR,0.00,VWS V14.00,2013-05-01 14:36:00,
2013-05-01 10:41:00,61.7,6.7,30.27,East,83,0.0,3.1,11,0.00,,CLR,0.00,VWS V14.00,2013-05-01 14:41:00,
2013-05-01 10:46:00,62.4,7.2,30.27,WNW,300,2.7,3.6,11,0.00,,CLR,0.00,VWS V14.00,2013-05-01 14:46:00,
2013-05-01 10:51:00,62.6,7.4,30.27,SE,126,2.7,4.0,11,0.00,,CLR,0.00,VWS V14.00,2013-05-01 14:51:00,
2013-05-01 10:56:00,63.3,7.9,30.27,NNE,17,3.1,3.1,11,0.00,,CLR,0.00,VWS V14.00,2013-05-01 14:56:00,
2013-05-01 11:01:00,63.5,6.0,30.27,ENE,62,4.5,5.8,10,0.00,,CLR,0.00,VWS V14.00,2013-05-01 15:01:00,
2013-05-01 11:06:00,63.7,6.1,30.27,SE,137,5.8,6.7,10,0.00,,CLR,0.00,VWS V14.00,2013-05-01 15:06:00,
2013-05-01 11:11:00,64.2,6.5,30.27,ENE,61,0.0,2.7,10,0.00,,CLR,0.00,VWS V14.00,2013-05-01 15:11:00,
2013-05-01 11:16:00,64.2,6.5,30.27,South,186,2.7,4.0,10,0.00,,CLR,0.00,VWS V14.00,2013-05-01 15:16:00,
2013-05-01 11:21:00,64.8,6.9,30.27,ESE,105,3.6,4.0,10,0.00,,CLR,0.00,VWS V14.00,2013-05-01 15:21:00,
2013-05-01 11:26:00,64.9,7.1,30.27,SE,128,3.1,5.8,10,0.00,,CLR,0.00,VWS V14.00,2013-05-01 15:26:00,
2013-05-01 11:31:00,65.7,7.6,30.27,ESE,104,5.4,5.4,10,0.00,,CLR,0.00,VWS V14.00,2013-05-01 15:31:00,
2013-05-01 11:36:00,66.2,8.1,30.27,South,183,4.5,4.9,10,0.00,,CLR,0.00,VWS V14.00,2013-05-01 15:36:00,
2013-05-01 11:41:00,66.4,8.2,30.27,ENE,63,0.0,5.8,10,0.00,,CLR,0.00,VWS V14.00,2013-05-01 15:41:00,
2013-05-01 11:46:00,66.0,7.9,30.27,ENE,66,3.1,4.5,10,0.00,,CLR,0.00,VWS V14.00,2013-05-01 15:46:00,
2013-05-01 11:51:00,66.4,8.2,30.27,East,91,0.0,3.6,10,0.00,,CLR,0.00,VWS V14.00,2013-05-01 15:51:00,
2013-05-01 11:56:00,66.7,8.5,30.24,East,94,0.0,4.0,10,0.00,,CLR,0.00,VWS V14.00,2013-05-01 15:56:00,
2013-05-01 12:01:00,66.9,8.6,30.24,ESE,116,3.6,5.8,10,0.00,,CLR,0.00,VWS V14.00,2013-05-01 16:01:00,
2013-05-01 12:06:00,66.9,8.6,30.24,WSW,242,0.0,4.0,10,0.00,,CLR,0.00,VWS V14.00,2013-05-01 16:06:00,
2013-05-01 12:11:00,67.5,9.0,30.24,NE,45,3.6,4.5,10,0.00,,CLR,0.00,VWS V14.00,2013-05-01 16:11:00,
2013-05-01 12:16:00,67.5,9.0,30.24,NE,56,0.0,4.9,10,0.00,,CLR,0.00,VWS V14.00,2013-05-01 16:16:00,
2013-05-01 12:21:00,67.6,9.1,30.24,East,82,0.0,0.0,10,0.00,,CLR,0.00,VWS V14.00,2013-05-01 16:21:00,
2013-05-01 12:26:00,68.4,9.7,30.24,SSE,154,3.6,4.0,10,0.00,,CLR,0.00,VWS V14.00,2013-05-01 16:26:00,
2013-05-01 12:31:00,69.1,10.3,30.24,East,100,3.6,3.6,10,0.00,,CLR,0.00,VWS V14.00,2013-05-01 16:31:00,
2013-05-01 12:36:00,69.6,10.7,30.24,South,174,4.9,5.4,10,0.00,,CLR,0.00,VWS V14.00,2013-05-01 16:36:00,
2013-05-01 12:41:00,71.1,13.9,30.24,SE,132,3.6,4.0,11,0.00,,CLR,0.00,VWS V14.00,2013-05-01 16:41:00,
2013-05-01 12:46:00,73.2,15.6,30.24,SSE,168,2.7,3.1,11,0.00,,CLR,0.00,VWS V14.00,2013-05-01 16:46:00,
2013-05-01 12:51:00,74.3,14.2,30.24,SSE,147,0.0,0.0,10,0.00,,CLR,0.00,VWS V14.00,2013-05-01 16:51:00,
2013-05-01 12:56:00,75.2,14.9,30.24,SSE,157,4.9,5.8,10,0.00,,CLR,0.00,VWS V14.00,2013-05-01 16:56:00,
2013-05-01 13:01:00,75.7,15.4,30.24,East,92,3.6,4.9,10,0.00,,CLR,0.00,VWS V14.00,2013-05-01 17:01:00,
2013-05-01 13:06:00,75.4,15.1,30.24,ESE,115,2.7,5.4,10,0.00,,CLR,0.00,VWS V14.00,2013-05-01 17:06:00,
2013-05-01 13:11:00,75.7,15.4,30.24,SW,214,0.0,3.6,10,0.00,,CLR,0.00,VWS V14.00,2013-05-01 17:11:00,
2013-05-01 13:16:00,76.5,15.9,30.24,SE,134,0.0,4.0,10,0.00,,CLR,0.00,VWS V14.00,2013-05-01 17:16:00,
2013-05-01 13:21:00,77.5,16.7,30.24,West,271,0.0,0.0,10,0.00,,CLR,0.00,VWS V14.00,2013-05-01 17:21:00,
2013-05-01 13:26:00,78.1,17.1,30.24,SE,143,4.5,6.9,10,0.00,,CLR,0.00,VWS V14.00,2013-05-01 17:26:00,
2013-05-01 13:31:00,77.9,17.0,30.24,ESE,116,3.1,4.9,10,0.00,,CLR,0.00,VWS V14.00,2013-05-01 17:31:00,
2013-05-01 13:36:00,78.3,17.3,30.24,SSE,162,0.0,3.1,10,0.00,,CLR,0.00,VWS V14.00,2013-05-01 17:36:00,
2013-05-01 13:42:00,78.6,17.5,30.24,SSE,151,4.5,5.8,10,0.00,,CLR,0.00,VWS V14.00,2013-05-01 17:42:00,
2013-05-01 13:47:00,78.8,17.7,30.24,South,170,0.0,0.0,10,0.00,,CLR,0.00,VWS V14.00,2013-05-01 17:47:00,
2013-05-01 13:52:00,79.0,17.8,30.24,South,174,6.9,6.9,10,0.00,,CLR,0.00,VWS V14.00,2013-05-01 17:52:00,
2013-05-01 13:57:00,79.2,18.0,30.24,South,189,3.6,5.8,10,0.00,,CLR,0.00,VWS V14.00,2013-05-01 17:57:00,
2013-05-01 14:02:00,79.3,18.1,30.24,ENE,68,3.1,4.9,10,0.00,,CLR,0.00,VWS V14.00,2013-05-01 18:02:00,
2013-05-01 14:07:00,79.3,18.1,30.24,ESE,115,0.0,4.0,10,0.00,,CLR,0.00,VWS V14.00,2013-05-01 18:07:00,
2013-05-01 14:12:00,79.3,18.1,30.24,East,100,3.1,4.0,10,0.00,,CLR,0.00,VWS V14.00,2013-05-01 18:12:00,
2013-05-01 14:17:00,79.7,18.4,30.24,SSE,151,0.0,4.5,10,0.00,,CLR,0.00,VWS V14.00,2013-05-01 18:17:00,
2013-05-01 14:22:00,80.2,18.8,30.24,East,100,6.3,6.3,10,0.00,,CLR,0.00,VWS V14.00,2013-05-01 18:22:00,
2013-05-01 14:27:00,80.1,18.6,30.24,SW,225,3.1,4.0,10,0.00,,CLR,0.00,VWS V14.00,2013-05-01 18:27:00,
2013-05-01 14:32:00,80.4,18.9,30.24,SW,221,2.7,6.7,10,0.00,,CLR,0.00,VWS V14.00,2013-05-01 18:32:00,
2013-05-01 14:37:00,80.6,19.0,30.24,SSE,150,4.5,5.4,10,0.00,,CLR,0.00,VWS V14.00,2013-05-01 18:37:00,
2013-05-01 14:42:00,80.6,19.0,30.24,SSE,161,3.6,4.9,10,0.00,,CLR,0.00,VWS V14.00,2013-05-01 18:42:00,
2013-05-01 14:47:00,80.4,18.9,30.24,SSE,156,2.7,5.8,10,0.00,,CLR,0.00,VWS V14.00,2013-05-01 18:47:00,
2013-05-01 14:52:00,80.2,18.8,30.24,South,171,5.4,5.4,10,0.00,,CLR,0.00,VWS V14.00,2013-05-01 18:52:00,
2013-05-01 14:57:00,80.2,18.8,30.24,SSE,150,3.6,4.5,10,0.00,,CLR,0.00,VWS V14.00,2013-05-01 18:57:00,
2013-05-01 15:02:00,80.2,18.8,30.24,South,183,4.5,6.3,10,0.00,,CLR,0.00,VWS V14.00,2013-05-01 19:02:00,
2013-05-01 15:07:00,80.4,18.9,30.24,SE,137,6.7,7.4,10,0.00,,CLR,0.00,VWS V14.00,2013-05-01 19:07:00,
2013-05-01 15:12:00,79.9,18.5,30.24,SSE,159,2.7,5.8,10,0.00,,CLR,0.00,VWS V14.00,2013-05-01 19:12:00,
2013-05-01 15:17:00,79.5,18.2,30.24,SSW,192,4.9,4.9,10,0.00,,CLR,0.00,VWS V14.00,2013-05-01 19:17:00,
2013-05-01 15:22:00,79.3,18.1,30.24,SSE,166,3.1,4.9,10,0.00,,CLR,0.00,VWS V14.00,2013-05-01 19:22:00,
2013-05-01 15:27:00,79.0,17.8,30.24,SSE,168,3.1,4.9,10,0.00,,CLR,0.00,VWS V14.00,2013-05-01 19:27:00,
2013-05-01 15:32:00,79.2,18.0,30.24,SSE,147,0.0,4.0,10,0.00,,CLR,0.00,VWS V14.00,2013-05-01 19:32:00,
2013-05-01 15:37:00,79.0,17.8,30.24,SE,133,3.1,3.6,10,0.00,,CLR,0.00,VWS V14.00,2013-05-01 19:37:00,
2013-05-01 15:42:00,78.6,17.5,30.24,WSW,243,4.0,5.4,10,0.00,,CLR,0.00,VWS V14.00,2013-05-01 19:42:00,
2013-05-01 15:47:00,78.3,17.3,30.24,South,185,6.3,8.3,10,0.00,,CLR,0.00,VWS V14.00,2013-05-01 19:47:00,
2013-05-01 15:52:00,78.1,17.1,30.24,WSW,242,2.7,4.9,10,0.00,,CLR,0.00,VWS V14.00,2013-05-01 19:52:00,
2013-05-01 15:57:00,77.7,16.9,30.24,SE,130,3.1,3.1,10,0.00,,CLR,0.00,VWS V14.00,2013-05-01 19:57:00,
2013-05-01 16:02:00,77.4,16.6,30.24,SW,234,6.3,7.4,10,0.00,,CLR,0.00,VWS V14.00,2013-05-01 20:02:00,
2013-05-01 16:07:00,76.6,16.0,30.24,SSE,148,4.0,4.5,10,0.00,,CLR,0.00,VWS V14.00,2013-05-01 20:07:00,
2013-05-01 16:12:00,76.1,15.6,30.24,SSE,150,4.5,9.2,10,0.00,,CLR,0.00,VWS V14.00,2013-05-01 20:12:00,
2013-05-01 16:17:00,75.4,15.1,30.24,SSE,148,3.6,6.3,10,0.00,,CLR,0.00,VWS V14.00,2013-05-01 20:17:00,
2013-05-01 16:22:00,75.4,15.1,30.24,West,259,5.8,6.3,10,0.00,,CLR,0.00,VWS V14.00,2013-05-01 20:22:00,
2013-05-01 16:27:00,75.2,14.9,30.24,SE,135,4.0,5.8,10,0.00,,CLR,0.00,VWS V14.00,2013-05-01 20:27:00,
2013-05-01 16:32:00,74.8,14.7,30.24,SE,138,4.5,5.4,10,0.00,,CLR,0.00,VWS V14.00,2013-05-01 20:32:00,
2013-05-01 16:37:00,74.1,14.1,30.24,SSE,158,3.1,3.6,10,0.00,,CLR,0.00,VWS V14.00,2013-05-01 20:37:00,
2013-05-01 16:42:00,73.8,13.8,30.24,SSE,164,4.5,5.8,10,0.00,,CLR,0.00,VWS V14.00,2013-05-01 20:42:00,
2013-05-01 16:47:00,73.4,13.6,30.24,SE,145,4.0,4.0,10,0.00,,CLR,0.00,VWS V14.00,2013-05-01 20:47:00,
2013-05-01 16:52:00,72.9,13.1,30.24,SSE,160,3.6,3.6,10,0.00,,CLR,0.00,VWS V14.00,2013-05-01 20:52:00,
2013-05-01 16:57:00,72.3,12.7,30.24,SSE,148,5.8,5.8,10,0.00,,CLR,0.00,VWS V14.00,2013-05-01 20:57:00,
2013-05-01 17:02:00,71.8,12.3,30.24,SSE,158,6.3,6.3,10,0.00,,CLR,0.00,VWS V14.00,2013-05-01 21:02:00,
2013-05-01 17:07:00,70.5,11.4,30.24,SE,125,4.0,4.0,10,0.00,,CLR,0.00,VWS V14.00,2013-05-01 21:07:00,
2013-05-01 17:12:00,69.4,10.5,30.24,SSE,161,4.9,4.9,10,0.00,,CLR,0.00,VWS V14.00,2013-05-01 21:12:00,
2013-05-01 17:17:00,68.7,10.0,30.24,SE,126,3.6,4.0,10,0.00,,CLR,0.00,VWS V14.00,2013-05-01 21:17:00,
2013-05-01 17:22:00,68.4,9.7,30.24,SE,135,4.9,4.9,10,0.00,,CLR,0.00,VWS V14.00,2013-05-01 21:22:00,
2013-05-01 17:27:00,68.0,9.4,30.24,SSE,162,4.5,4.5,10,0.00,,CLR,0.00,VWS V14.00,2013-05-01 21:27:00,
2013-05-01 17:32:00,67.8,9.3,30.24,ESE,110,4.5,4.9,10,0.00,,CLR,0.00,VWS V14.00,2013-05-01 21:32:00,
2013-05-01 17:37:00,67.6,9.1,30.24,ESE,115,2.7,3.1,10,0.00,,CLR,0.00,VWS V14.00,2013-05-01 21:37:00,
2013-05-01 17:42:00,67.3,13.0,30.27,SSE,150,3.1,4.5,12,0.00,,CLR,0.00,VWS V14.00,2013-05-01 21:42:00,
2013-05-01 17:47:00,66.7,12.5,30.27,ESE,123,4.9,4.9,12,0.00,,CLR,0.00,VWS V14.00,2013-05-01 21:47:00,
2013-05-01 17:52:00,66.4,12.3,30.27,SSE,148,4.9,4.9,12,0.00,,CLR,0.00,VWS V14.00,2013-05-01 21:52:00,
2013-05-01 17:57:00,66.0,12.0,30.27,South,188,5.8,5.8,12,0.00,,CLR,0.00,VWS V14.00,2013-05-01 21:57:00,
2013-05-01 18:02:00,65.7,11.7,30.27,SE,144,3.6,3.6,12,0.00,,CLR,0.00,VWS V14.00,2013-05-01 22:02:00,
2013-05-01 18:07:00,65.5,11.6,30.27,SE,127,4.5,4.5,12,0.00,,CLR,0.00,VWS V14.00,2013-05-01 22:07:00,
2013-05-01 18:12:00,65.3,13.2,30.27,SSE,150,5.8,5.8,13,0.00,,CLR,0.00,VWS V14.00,2013-05-01 22:12:00,
2013-05-01 18:17:00,64.8,12.8,30.27,ENE,68,2.7,2.7,13,0.00,,CLR,0.00,VWS V14.00,2013-05-01 22:17:00,
2013-05-01 18:22:00,64.6,15.9,30.27,SSE,151,3.1,3.1,15,0.00,,CLR,0.00,VWS V14.00,2013-05-01 22:22:00,
2013-05-01 18:27:00,64.4,15.8,30.27,SSE,149,4.9,4.9,15,0.00,,CLR,0.00,VWS V14.00,2013-05-01 22:27:00,
2013-05-01 18:32:00,64.2,15.6,30.27,SW,235,0.0,0.0,15,0.00,,CLR,0.00,VWS V14.00,2013-05-01 22:32:00,
2013-05-01 18:37:00,63.9,15.3,30.27,SSE,151,2.7,2.7,15,0.00,,CLR,0.00,VWS V14.00,2013-05-01 22:37:00,
2013-05-01 18:42:00,63.7,15.2,30.27,SE,129,4.9,5.4,15,0.00,,CLR,0.00,VWS V14.00,2013-05-01 22:42:00,
2013-05-01 18:47:00,63.3,16.4,30.27,SSE,153,2.7,2.7,16,0.00,,CLR,0.00,VWS V14.00,2013-05-01 22:47:00,
2013-05-01 18:52:00,63.0,16.1,30.27,SSE,147,0.0,0.0,16,0.00,,CLR,0.00,VWS V14.00,2013-05-01 22:52:00,
2013-05-01 18:57:00,62.6,15.8,30.27,South,178,0.0,0.0,16,0.00,,CLR,0.00,VWS V14.00,2013-05-01 22:57:00,
2013-05-01 19:02:00,62.2,15.5,30.27,SSE,156,0.0,0.0,16,0.00,,CLR,0.00,VWS V14.00,2013-05-01 23:02:00,
2013-05-01 19:07:00,62.1,15.4,30.27,SSE,153,3.6,3.6,16,0.00,,CLR,0.00,VWS V14.00,2013-05-01 23:07:00,
2013-05-01 19:12:00,61.9,15.2,30.27,SSE,162,3.6,4.5,16,0.00,,CLR,0.00,VWS V14.00,2013-05-01 23:12:00,
2013-05-01 19:17:00,61.7,15.1,30.27,SSE,164,0.0,0.0,16,0.00,,CLR,0.00,VWS V14.00,2013-05-01 23:17:00,
2013-05-01 19:22:00,61.3,14.8,30.27,SSE,157,4.5,4.9,16,0.00,,CLR,0.00,VWS V14.00,2013-05-01 23:22:00,
2013-05-01 19:27:00,61.2,14.6,30.27,SSE,158,3.1,3.1,16,0.00,,CLR,0.00,VWS V14.00,2013-05-01 23:27:00,
2013-05-01 19:32:00,60.8,14.4,30.27,SSE,156,0.0,3.1,16,0.00,,CLR,0.00,VWS V14.00,2013-05-01 23:32:00,
2013-05-01 19:37:00,60.6,14.2,30.27,South,173,0.0,0.0,16,0.00,,CLR,0.00,VWS V14.00,2013-05-01 23:37:00,
2013-05-01 19:42:00,60.4,14.1,30.27,South,191,0.0,0.0,16,0.00,,CLR,0.00,VWS V14.00,2013-05-01 23:42:00,
2013-05-01 19:47:00,60.3,13.9,30.27,South,171,0.0,0.0,16,0.00,,CLR,0.00,VWS V14.00,2013-05-01 23:47:00,
2013-05-01 19:52:00,60.1,17.7,30.27,SE,140,0.0,0.0,19,0.00,,CLR,0.00,VWS V14.00,2013-05-01 23:52:00,
2013-05-01 19:57:00,59.7,17.4,30.30,SE,133,3.1,3.6,19,0.00,,CLR,0.00,VWS V14.00,2013-05-01 23:57:00,
2013-05-01 20:02:00,59.5,17.3,30.30,SE,144,3.1,3.1,19,0.00,,CLR,0.00,VWS V14.00,2013-05-02 00:02:00,
2013-05-01 20:07:00,59.4,14.6,30.30,SE,144,0.0,0.0,17,0.00,,CLR,0.00,VWS V14.00,2013-05-02 00:07:00,
2013-05-01 20:12:00,59.2,17.0,30.30,ESE,117,0.0,0.0,19,0.00,,CLR,0.00,VWS V14.00,2013-05-02 00:12:00,
2013-05-01 20:17:00,59.0,16.8,30.30,SE,145,0.0,0.0,19,0.00,,CLR,0.00,VWS V14.00,2013-05-02 00:17:00,
2013-05-01 20:22:00,58.8,16.7,30.30,South,187,0.0,0.0,19,0.00,,CLR,0.00,VWS V14.00,2013-05-02 00:22:00,
2013-05-01 20:27:00,58.6,16.5,30.30,SSE,168,0.0,0.0,19,0.00,,CLR,0.00,VWS V14.00,2013-05-02 00:27:00,
2013-05-01 20:32:00,58.5,16.4,30.30,SSE,164,0.0,0.0,19,0.00,,CLR,0.00,VWS V14.00,2013-05-02 00:32:00,
2013-05-01 20:37:00,58.3,16.2,30.30,SSE,160,0.0,0.0,19,0.00,,CLR,0.00,VWS V14.00,2013-05-02 00:37:00,
2013-05-01 20:42:00,58.1,19.5,30.30,SSE,160,0.0,0.0,22,0.00,,CLR,0.00,VWS V14.00,2013-05-02 00:42:00,
2013-05-01 20:47:00,58.1,19.5,30.30,SSE,160,0.0,0.0,22,0.00,,CLR,0.00,VWS V14.00,2013-05-02 00:47:00,
2013-05-01 20:52:00,57.7,21.2,30.30,SSE,160,0.0,0.0,24,0.00,,CLR,0.00,VWS V14.00,2013-05-02 00:52:00,
2013-05-01 20:57:00,57.4,20.9,30.30,SSE,160,0.0,0.0,24,0.00,,CLR,0.00,VWS V14.00,2013-05-02 00:57:00,
2013-05-01 21:02:00,57.0,21.6,30.30,SSE,160,0.0,0.0,25,0.00,,CLR,0.00,VWS V14.00,2013-05-02 01:02:00,
2013-05-01 21:07:00,56.8,21.4,30.30,SW,223,0.0,0.0,25,0.00,,CLR,0.00,VWS V14.00,2013-05-02 01:07:00,
2013-05-01 21:12:00,56.5,22.0,30.30,SW,224,0.0,0.0,26,0.00,,CLR,0.00,VWS V14.00,2013-05-02 01:12:00,
2013-05-01 21:17:00,56.3,21.9,30.30,SW,223,0.0,0.0,26,0.00,,CLR,0.00,VWS V14.00,2013-05-02 01:17:00,
2013-05-01 21:22:00,56.1,22.6,30.30,SW,224,0.0,0.0,27,0.00,,CLR,0.00,VWS V14.00,2013-05-02 01:22:00,
2013-05-01 21:27:00,55.9,22.5,30.30,SW,223,0.0,0.0,27,0.00,,CLR,0.00,VWS V14.00,2013-05-02 01:27:00,
2013-05-01 21:32:00,55.8,23.2,30.30,SW,224,0.0,0.0,28,0.00,,CLR,0.00,VWS V14.00,2013-05-02 01:32:00,
2013-05-01 21:37:00,55.6,23.9,30.30,SW,224,0.0,0.0,29,0.00,,CLR,0.00,VWS V14.00,2013-05-02 01:37:00,
2013-05-01 21:42:00,55.2,23.5,30.30,SW,223,0.0,0.0,29,0.00,,CLR,0.00,VWS V14.00,2013-05-02 01:42:00,
2013-05-01 21:47:00,54.9,24.0,30.30,SW,224,0.0,0.0,30,0.00,,CLR,0.00,VWS V14.00,2013-05-02 01:47:00,
2013-05-01 21:52:00,54.7,25.4,30.30,SW,223,0.0,0.0,32,0.00,,CLR,0.00,VWS V14.00,2013-05-02 01:52:00,
2013-05-01 21:57:00,54.5,26.0,30.33,SW,224,0.0,0.0,33,0.00,,CLR,0.00,VWS V14.00,2013-05-02 01:57:00,
2013-05-01 22:02:00,54.3,26.6,30.33,SW,224,0.0,0.0,34,0.00,,CLR,0.00,VWS V14.00,2013-05-02 02:02:00,
2013-05-01 22:07:00,54.0,27.0,30.33,SW,223,0.0,0.0,35,0.00,,CLR,0.00,VWS V14.00,2013-05-02 02:07:00,
2013-05-01 22:12:00,53.6,26.6,30.30,SW,223,0.0,0.0,35,0.00,,CLR,0.00,VWS V14.00,2013-05-02 02:12:00,
2013-05-01 22:17:00,53.2,27.0,30.30,SW,224,0.0,0.0,36,0.00,,CLR,0.00,VWS V14.00,2013-05-02 02:17:00,
2013-05-01 22:22:00,53.1,26.8,30.30,SW,224,0.0,0.0,36,0.00,,CLR,0.00,VWS V14.00,2013-05-02 02:22:00,
2013-05-01 22:27:00,52.7,27.2,30.30,SW,224,0.0,0.0,37,0.00,,CLR,0.00,VWS V14.00,2013-05-02 02:27:00,
2013-05-01 22:32:00,52.2,26.7,30.30,SW,224,0.0,0.0,37,0.00,,CLR,0.00,VWS V14.00,2013-05-02 02:32:00,
2013-05-01 22:37:00,51.8,27.0,30.30,SW,224,0.0,0.0,38,0.00,,CLR,0.00,VWS V14.00,2013-05-02 02:37:00,
2013-05-01 22:42:00,51.6,26.9,30.30,SW,223,0.0,0.0,38,0.00,,CLR,0.00,VWS V14.00,2013-05-02 02:42:00,
2013-05-01 22:47:00,51.6,27.5,30.30,SW,224,0.0,0.0,39,0.00,,CLR,0.00,VWS V14.00,2013-05-02 02:47:00,
2013-05-01 22:52:00,51.6,27.5,30.30,SW,224,0.0,0.0,39,0.00,,CLR,0.00,VWS V14.00,2013-05-02 02:52:00,
2013-05-01 22:57:00,51.4,27.3,30.30,SW,224,0.0,0.0,39,0.00,,CLR,0.00,VWS V14.00,2013-05-02 02:57:00,
2013-05-01 23:02:00,51.3,27.2,30.30,SW,224,0.0,0.0,39,0.00,,CLR,0.00,VWS V14.00,2013-05-02 03:02:00,
2013-05-01 23:07:00,50.9,27.5,30.30,SW,223,0.0,0.0,40,0.00,,CLR,0.00,VWS V14.00,2013-05-02 03:07:00,
2013-05-01 23:12:00,50.9,28.6,30.30,SW,224,0.0,0.0,42,0.00,,CLR,0.00,VWS V14.00,2013-05-02 03:12:00,
2013-05-01 23:17:00,50.7,28.5,30.30,SW,224,0.0,0.0,42,0.00,,CLR,0.00,VWS V14.00,2013-05-02 03:17:00,
2013-05-01 23:22:00,50.4,28.7,30.30,SW,223,0.0,0.0,43,0.00,,CLR,0.00,VWS V14.00,2013-05-02 03:22:00,
2013-05-01 23:27:00,50.2,29.1,30.30,SW,224,0.0,0.0,44,0.00,,CLR,0.00,VWS V14.00,2013-05-02 03:27:00,
2013-05-01 23:32:00,50.2,29.7,30.30,SW,224,0.0,0.0,45,0.00,,CLR,0.00,VWS V14.00,2013-05-02 03:32:00,
2013-05-01 23:37:00,50.0,29.5,30.30,SW,224,0.0,0.0,45,0.00,,CLR,0.00,VWS V14.00,2013-05-02 03:37:00,
2013-05-01 23:42:00,49.8,29.4,30.30,SW,224,0.0,0.0,45,0.00,,CLR,0.00,VWS V14.00,2013-05-02 03:42:00,
2013-05-01 23:47:00,49.8,29.9,30.30,SW,224,0.0,0.0,46,0.00,,CLR,0.00,VWS V14.00,2013-05-02 03:47:00,
2013-05-01 23:52:00,49.6,30.2,30.30,SW,223,0.0,0.0,47,0.00,,CLR,0.00,VWS V14.00,2013-05-02 03:52:00,
2013-05-01 23:57:00,49.6,30.2,30.30,SW,224,0.0,0.0,47,0.00,,CLR,0.00,VWS V14.00,2013-05-02 03:57:00,